Change the Weather History Date:

Thursday, May 23, 2013

  Actual Average Record
Temperature  
Mean Temperature 74 °F -  
Max Temperature 75 °F 73 °F 88 °F (1970)
Min Temperature 72 °F 60 °F 41 °F (2001)
Cooling Degree Days 8    
Growing Degree Days 24 (Base 50)    
Moisture  
Dew Point 70 °F    
Average Humidity 86    
Maximum Humidity 91    
Minimum Humidity 81    
Precipitation  
Precipitation 0.09 in - - ()
Sea Level Pressure  
Sea Level Pressure 29.94 in    
Wind  
Wind Speed 18 mph (SSW)    
Max Wind Speed 26 mph    
Max Gust Speed 33 mph    
Visibility 10 miles    
Events Rain    
Averages and records for this station are not official NWS values.
T = Trace of Precipitation, MM = Missing Value Source: NWS Daily Summary

Daily Weather History Graph

Daily Weather History Graph

Search for Another Location

Airport or City:

Trip Planner

Search our weather history database for the weather conditions in past years. The results will help you decide how hot, cold, wet, or windy it might be!

Date:

Astronomy

May. 23, 2013 Rise Set
Actual Time 5:51 AM EDT 8:07 PM EDT
Civil Twilight 5:22 AM EDT 8:37 PM EDT
Nautical Twilight 4:46 AM EDT 9:12 PM EDT
Astronomical Twilight 4:08 AM EDT 9:51 PM EDT
Moon 6:39 PM EDT (5/23) 4:31 AM EDT (5/23)
Length of Visible Light 15h 14m
Length of Day
14h 16m
Waxing Gibbous, 97% of the Moon is Illuminated
May 23
Waxing Gibbous
May 25
Full
May 31
Last Quarter
Jun 8
New
Jun 16
First Quarter

Hourly Weather History & Observations

Time (EDT) Temp. Dew Point Humidity Pressure Visibility Wind Dir Wind Speed Gust Speed Precip Events Conditions
12:15 AM 75.2 °F 70.2 °F 84% 30.04 in 10.0 mi SSW 16.1 mph - N/A   Overcast
12:35 AM 74.7 °F 71.6 °F 90% 30.04 in 7.0 mi SSW 16.1 mph 24.2 mph N/A Rain Light Rain
12:55 AM 74.3 °F 71.1 °F 90% 30.04 in 10.0 mi SSW 17.3 mph 24.2 mph N/A   Overcast
1:15 AM 75.2 °F 71.6 °F 89% 30.03 in 10.0 mi SSW 21.9 mph 25.3 mph N/A   Overcast
1:35 AM 75.2 °F 71.2 °F 87% 30.02 in 10.0 mi SSW 21.9 mph - N/A   Overcast
1:55 AM 75.2 °F 71.2 °F 87% 30.01 in 10.0 mi South 20.7 mph 25.3 mph N/A   Overcast
2:15 AM 75.2 °F 71.1 °F 87% 30.01 in 10.0 mi South 21.9 mph 27.6 mph N/A   Overcast
2:35 AM 75.2 °F 71.1 °F 87% 30.01 in 10.0 mi SSW 24.2 mph 27.6 mph N/A   Overcast
2:55 AM 75.2 °F 71.1 °F 87% 30.00 in 10.0 mi SSW 21.9 mph 26.5 mph N/A   Overcast
3:15 AM 75.2 °F 71.1 °F 87% 29.99 in 10.0 mi South 19.6 mph 27.6 mph N/A   Overcast
3:35 AM 75.2 °F 70.7 °F 86% 29.99 in 10.0 mi South 21.9 mph - N/A   Mostly Cloudy
3:55 AM 75.2 °F 70.7 °F 86% 29.99 in 10.0 mi South 20.7 mph 27.6 mph N/A   Overcast
4:15 AM 74.8 °F 69.8 °F 84% 29.99 in 10.0 mi SSW 19.6 mph - N/A   Mostly Cloudy
4:35 AM 74.7 °F 70.2 °F 86% 29.99 in 10.0 mi South 17.3 mph 27.6 mph N/A   Mostly Cloudy
4:55 AM 75.2 °F 70.3 °F 85% 29.99 in 10.0 mi South 25.3 mph - N/A   Overcast
5:15 AM 75.2 °F 70.3 °F 85% 29.99 in 10.0 mi SSW 16.1 mph 26.5 mph N/A   Overcast
5:35 AM 74.3 °F 70.3 °F 87% 29.99 in 10.0 mi SSW 15.0 mph 20.7 mph N/A   Overcast
5:55 AM 74.1 °F 70.0 °F 87% 29.99 in 10.0 mi SSW 19.6 mph 26.5 mph 0.01 in   Overcast
6:15 AM 73.4 °F 68.9 °F 86% 29.99 in 10.0 mi SSW 17.3 mph - N/A   Mostly Cloudy
6:35 AM 72.7 °F 68.0 °F 85% 30.00 in 10.0 mi SSW 17.3 mph - N/A   Scattered Clouds
6:55 AM 73.0 °F 67.5 °F 83% 30.00 in 10.0 mi SSW 13.8 mph - N/A   Clear
7:15 AM 73.2 °F 67.8 °F 83% 30.01 in 10.0 mi SSW 15.0 mph - N/A   Scattered Clouds
7:35 AM 73.8 °F 68.9 °F 85% 30.00 in 10.0 mi SSW 19.6 mph - N/A   Mostly Cloudy
7:55 AM 74.3 °F 68.5 °F 82% 30.00 in 10.0 mi SSW 20.7 mph - N/A   Clear
8:15 AM 74.3 °F 69.1 °F 84% 30.00 in 10.0 mi South 24.2 mph - N/A   Scattered Clouds
8:35 AM 74.7 °F 68.4 °F 81% 30.00 in 10.0 mi SSW 19.6 mph - N/A   Clear
8:55 AM 73.9 °F 70.0 °F 87% 30.00 in 10.0 mi South 15.0 mph - N/A   Mostly Cloudy
9:15 AM 73.9 °F 69.4 °F 86% 30.00 in 10.0 mi South 19.6 mph - N/A   Overcast
9:35 AM 72.9 °F 69.4 °F 89% 30.00 in 10.0 mi SSW 20.7 mph - N/A   Light Drizzle
9:55 AM 73.9 °F 69.8 °F 87% 30.00 in 10.0 mi SSW 17.3 mph - N/A   Mostly Cloudy
10:15 AM 74.3 °F 69.8 °F 86% 29.99 in 10.0 mi SSW 19.6 mph - N/A   Overcast
10:35 AM 74.5 °F 69.1 °F 83% 29.99 in 10.0 mi SSW 21.9 mph 27.6 mph N/A   Overcast
10:55 AM 73.9 °F 69.4 °F 86% 30.00 in 10.0 mi SSW 21.9 mph - N/A   Overcast
11:15 AM 73.6 °F 70.3 °F 90% 30.00 in 7.0 mi SSW 16.1 mph - 0.01 in Rain Light Rain
11:35 AM 74.3 °F 69.3 °F 84% 29.99 in 10.0 mi South 23.0 mph 29.9 mph 0.02 in   Mostly Cloudy
11:55 AM 73.6 °F 69.8 °F 88% 30.00 in 10.0 mi South 25.3 mph 32.2 mph 0.02 in   Mostly Cloudy
12:15 PM 73.4 °F 69.6 °F 88% 29.99 in 10.0 mi SSW 23.0 mph - N/A   Overcast
12:35 PM 72.7 °F 69.4 °F 90% 29.99 in 10.0 mi SSW 20.7 mph 25.3 mph 0.01 in   Light Drizzle
12:55 PM 72.7 °F 69.4 °F 90% 29.98 in 10.0 mi SSW 20.7 mph 24.2 mph 0.02 in Rain Rain
1:15 PM 72.5 °F 69.4 °F 90% 29.97 in 7.0 mi South 17.3 mph 21.9 mph 0.01 in Rain Light Rain
1:35 PM 72.9 °F 69.8 °F 90% 29.96 in 10.0 mi South 20.7 mph 26.5 mph 0.02 in Rain Light Rain
1:55 PM 72.9 °F 69.4 °F 89% 29.95 in 10.0 mi South 19.6 mph 26.5 mph 0.02 in   Light Drizzle
2:15 PM 72.9 °F 69.6 °F 90% 29.94 in 10.0 mi SSW 25.3 mph 31.1 mph N/A   Light Drizzle
2:35 PM 72.5 °F 69.1 °F 89% 29.93 in 7.0 mi SSW 26.5 mph 33.4 mph 0.01 in Rain Light Rain
2:55 PM 72.5 °F 68.9 °F 88% 29.93 in 7.0 mi SSW 26.5 mph 31.1 mph 0.02 in Rain Light Rain
3:15 PM 73.4 °F 68.9 °F 86% 29.92 in 10.0 mi South 23.0 mph 33.4 mph N/A   Overcast
3:35 PM 73.4 °F 70.0 °F 89% 29.91 in 7.0 mi South 20.7 mph 28.8 mph N/A   Overcast
3:55 PM 73.2 °F 68.9 °F 86% 29.90 in 10.0 mi South 19.6 mph 28.8 mph N/A   Overcast
4:15 PM 73.0 °F 68.4 °F 85% 29.89 in 10.0 mi South 18.4 mph 29.9 mph N/A   Overcast
4:35 PM 73.6 °F 68.0 °F 83% 29.88 in 10.0 mi South 18.4 mph 25.3 mph N/A   Overcast
4:55 PM 73.6 °F 69.3 °F 86% 29.87 in 10.0 mi South 16.1 mph 21.9 mph N/A   Overcast
5:15 PM 73.6 °F 70.0 °F 88% 29.86 in 7.0 mi South 13.8 mph - N/A   Overcast
5:35 PM 74.8 °F 70.2 °F 85% 29.85 in 10.0 mi South 12.7 mph - N/A   Overcast
5:55 PM 74.7 °F 69.6 °F 84% 29.84 in 10.0 mi SSW 15.0 mph - N/A   Overcast
6:15 PM 75.6 °F 70.2 °F 83% 29.84 in 10.0 mi South 12.7 mph - N/A   Mostly Cloudy
6:35 PM 75.4 °F 69.1 °F 81% 29.84 in 10.0 mi SW 17.3 mph 21.9 mph N/A   Mostly Cloudy
6:55 PM 75.6 °F 69.4 °F 81% 29.84 in 10.0 mi SSW 15.0 mph - N/A   Mostly Cloudy
7:15 PM 75.2 °F 69.4 °F 82% 29.85 in 10.0 mi SW 11.5 mph - N/A   Scattered Clouds
7:35 PM 75.2 °F 69.8 °F 83% 29.85 in 10.0 mi SSW 15.0 mph - N/A   Mostly Cloudy
7:55 PM 74.5 °F 70.0 °F 86% 29.85 in 10.0 mi SSW 13.8 mph - N/A   Overcast
8:15 PM 74.3 °F 69.8 °F 86% 29.84 in 10.0 mi SSW 13.8 mph - N/A   Mostly Cloudy
8:35 PM 73.8 °F 69.8 °F 87% 29.84 in 10.0 mi SSW 13.8 mph - N/A   Scattered Clouds
8:55 PM 73.8 °F 69.8 °F 87% 29.85 in 10.0 mi SSW 12.7 mph - N/A   Scattered Clouds
9:15 PM 73.4 °F 70.5 °F 91% 29.85 in 10.0 mi SSW 12.7 mph - N/A   Clear
9:35 PM 73.6 °F 70.7 °F 91% 29.85 in 10.0 mi SSW 12.7 mph - N/A   Scattered Clouds
9:55 PM 73.8 °F 69.8 °F 87% 29.86 in 10.0 mi SSW 11.5 mph - N/A   Scattered Clouds
10:15 PM 73.4 °F 69.8 °F 88% 29.86 in 10.0 mi SW 9.2 mph - N/A   Scattered Clouds
10:35 PM 73.0 °F 69.4 °F 88% 29.86 in 10.0 mi SSW 9.2 mph - N/A   Scattered Clouds
10:55 PM 73.4 °F 69.6 °F 88% 29.86 in 10.0 mi SW 8.1 mph - N/A   Mostly Cloudy
11:15 PM 73.4 °F 68.9 °F 86% 29.86 in 10.0 mi SW 6.9 mph - N/A   Overcast
11:35 PM 73.0 °F 68.7 °F 86% 29.86 in 10.0 mi SW 6.9 mph - N/A   Overcast
11:55 PM 72.9 °F 68.5 °F 86% 29.86 in 10.0 mi SW 6.9 mph - N/A   Overcast